Theta_e
324 323 324 324 326 329 331 332 332 332 332 333 333 332 333 333 333 333 332 331 330 329 327 326 326 327 327 328 327 326 326 328 331 331 329 328 327 325 325 327 328 330
326 325 325 326 327 329 330 330 331 332 332 332 332 332 332 333 332 332 332 331 331 330 329 328 327 327 327 327 327 326 325 324 328 332 331 328 327 326 325 326 328 331
325 324 325 325 326 327 329 329 330 331 331 331 331 331 331 331 331 331 331 332 331 330 329 328 328 328 327 327 328 327 326 324 324 329 331 328 326 326 325 326 327 331
325 324 324 324 325 325 327 328 329 329 329 330 331 331 331 330 330 330 331 331 331 331 330 329 328 328 327 328 328 328 327 325 324 327 331 330 326 325 325 325 327 330
324 325 324 324 324 325 326 328 329 329 330 330 331 331 331 330 330 331 330 330 331 331 331 330 329 328 328 329 329 329 328 327 325 325 330 331 327 325 324 325 327 330
323 324 324 324 325 325 326 327 327 328 329 330 331 332 332 332 332 332 331 330 330 330 331 331 330 329 330 330 330 329 328 329 327 325 329 331 329 325 324 326 328 329
324 325 325 325 325 325 325 325 325 326 326 327 329 330 331 332 332 332 332 331 331 330 331 331 331 330 331 330 330 329 328 329 328 328 329 331 330 325 324 327 328 329
324 325 325 324 325 325 324 323 324 325 324 324 327 329 330 330 331 332 332 332 332 332 331 330 329 330 331 331 330 329 328 329 329 330 331 331 330 326 324 326 328 330
322 323 323 323 323 323 324 323 323 323 323 323 325 326 327 329 330 331 331 331 332 332 332 331 330 330 331 331 331 331 330 330 330 331 332 331 330 326 323 325 329 331
322 322 322 322 322 322 323 323 322 322 322 323 323 323 324 327 329 330 330 331 331 331 332 332 332 331 331 331 332 332 330 329 329 330 331 330 330 326 324 325 329 331
321 321 321 322 322 322 322 322 321 322 322 323 323 324 324 325 326 328 329 330 331 331 331 332 332 332 332 332 332 332 331 328 328 329 330 330 329 326 324 327 330 331
320 320 320 321 321 322 322 321 321 322 323 323 324 324 324 324 323 324 325 327 327 328 330 331 332 332 332 332 332 333 332 331 330 330 331 330 329 327 324 326 330 331
319 320 320 321 321 322 322 322 322 323 323 323 323 323 323 323 322 322 323 323 324 324 326 329 330 331 331 332 332 332 333 333 332 332 332 331 330 329 328 328 329 331
319 319 320 320 321 321 321 322 322 323 323 323 323 322 322 321 321 321 321 321 322 322 322 324 325 327 328 329 331 332 332 332 332 332 332 331 331 331 331 332 331 331
318 318 319 319 320 321 321 321 321 322 322 321 321 321 320 320 320 320 319 319 320 319 320 321 321 322 323 325 327 329 330 331 331 332 332 333 332 331 332 333 332 332
317 318 319 319 319 319 320 319 319 319 319 318 319 319 319 319 319 318 318 318 318 318 319 319 320 320 320 321 322 324 327 328 329 330 332 332 332 331 331 332 332 332
317 317 318 318 318 318 318 318 317 317 317 316 317 317 318 318 318 317 317 317 317 317 318 318 319 320 320 321 321 321 322 325 327 328 329 329 330 331 331 331 331 331
316 317 317 317 317 316 316 316 316 315 315 315 315 316 317 317 317 317 316 316 316 316 317 318 318 320 321 322 322 322 321 322 325 328 330 330 330 330 330 331 332 332
316 316 316 316 316 315 315 315 314 314 313 313 314 315 316 316 316 316 316 315 314 315 315 316 318 319 321 322 323 324 324 324 325 329 331 331 330 330 331 331 331 332
315 316 315 315 315 314 314 313 313 313 312 313 313 314 315 315 315 316 315 314 313 314 314 314 316 317 319 320 322 324 325 326 327 328 330 331 330 330 331 331 331 331
315 315 314 314 313 313 313 313 313 312 312 312 313 313 314 315 315 315 314 313 313 313 312 312 313 314 316 318 320 322 324 325 326 327 328 329 330 329 330 330 330 330
315 314 314 313 313 312 313 312 312 312 312 312 312 313 314 315 314 313 313 312 312 311 310 310 310 310 311 314 317 320 321 323 324 326 326 327 328 329 328 328 329 330
314 313 313 313 312 312 312 312 312 312 311 311 311 312 314 314 314 313 312 312 310 308 308 309 309 309 309 310 314 317 319 321 322 324 325 326 327 327 326 327 329 330
313 313 313 313 312 312 311 311 312 310 310 311 311 312 314 314 313 312 312 311 308 306 307 307 308 309 309 308 310 312 315 318 320 322 322 323 324 325 325 326 327 326
313 313 313 312 312 312 311 311 311 310 309 311 311 312 313 313 312 312 312 310 308 306 307 307 307 308 308 308 308 308 310 313 316 318 319 319 320 321 321 323 323 323
313 313 313 312 312 311 311 311 310 309 309 310 310 311 312 312 312 311 311 310 309 307 307 308 307 307 307 307 307 307 307 309 312 314 316 316 317 317 318 319 320 320
Wind_Speed
10 12 12 12 12 13 13 13 14 14 15 15 14 14 14 15 17 18 18 19 21 24 26 28 30 29 27 24 23 22 22 22 22 23 24 25 25 25 25 25 24 22
10 11 12 12 12 13 13 14 14 14 15 15 16 16 16 17 18 19 19 19 19 21 24 27 30 31 31 29 27 25 24 23 23 24 26 28 27 25 25 26 25 23
10 11 12 12 12 12 13 13 13 14 15 15 15 17 17 18 20 21 20 19 19 20 22 24 27 29 30 29 30 29 27 26 26 26 28 30 29 27 25 26 27 25
10 11 11 12 12 12 13 13 13 13 14 15 15 15 16 17 19 20 20 20 20 21 22 22 24 25 27 28 30 30 29 29 28 27 29 31 32 30 27 27 29 27
10 10 11 11 11 12 12 12 12 12 12 13 14 14 14 15 16 18 19 20 20 19 20 20 21 23 25 27 28 30 30 30 29 28 30 32 34 33 30 28 30 28
9 10 10 10 11 12 12 11 11 12 12 12 12 12 13 13 14 15 16 17 17 17 18 18 20 22 24 26 28 29 30 30 30 30 32 34 35 35 32 30 30 29
8 9 9 9 10 11 12 12 11 11 12 12 13 13 13 14 14 13 14 16 17 17 17 17 18 19 21 24 27 28 29 30 30 31 33 35 36 36 34 32 31 30
8 8 8 9 10 11 12 13 12 12 12 12 12 13 14 14 15 15 15 16 17 17 17 18 19 18 18 20 25 27 28 30 31 32 33 35 37 38 36 34 31 30
8 8 8 9 10 11 11 12 13 14 14 13 13 13 13 13 14 15 16 16 16 16 16 17 19 20 19 20 23 25 27 30 33 35 35 36 38 38 37 36 33 31
9 9 9 10 11 11 11 12 13 14 14 14 14 13 13 12 12 13 14 15 16 16 15 16 17 20 22 22 21 23 25 28 33 37 38 38 39 38 36 36 34 34
9 9 10 11 11 11 12 13 13 13 13 13 13 12 12 12 13 13 13 15 16 16 15 16 17 19 21 21 20 21 23 25 28 34 37 39 41 40 38 37 36 35
9 10 11 11 11 11 12 13 12 12 11 12 12 12 12 12 12 12 12 12 14 16 16 17 17 17 18 19 18 19 21 23 25 28 33 36 39 41 40 39 39 36
10 10 10 12 12 12 11 10 10 9 9 10 12 13 13 12 12 12 11 9 12 18 20 21 21 20 20 20 18 18 20 23 24 26 29 33 36 40 41 40 41 39
10 10 12 12 11 9 8 8 9 8 8 9 10 13 14 14 13 13 12 11 14 19 21 21 22 23 24 24 22 22 22 23 25 25 27 31 33 36 39 40 42 41
10 11 12 11 8 7 7 8 8 7 8 9 9 11 14 16 15 13 12 14 16 17 18 19 21 22 24 25 25 26 25 25 25 24 25 28 29 30 33 38 41 40
10 9 9 8 7 7 8 8 7 8 10 10 9 11 14 16 16 13 11 13 14 13 15 18 20 23 25 26 26 28 28 28 27 27 27 28 28 29 31 35 38 39
9 9 9 8 7 8 9 8 7 8 10 10 9 11 14 16 16 13 11 11 12 12 13 15 18 20 23 25 27 28 29 30 29 28 29 30 30 29 31 35 38 39
10 9 9 9 9 9 9 10 10 10 10 9 9 11 13 15 15 13 12 11 11 11 12 13 15 17 19 21 22 24 26 29 28 26 27 31 30 28 30 35 38 39
10 10 9 9 9 9 9 11 11 11 11 11 10 11 12 14 14 12 12 11 9 10 12 12 14 15 15 16 16 16 18 22 26 25 25 28 28 27 30 33 36 38
9 9 9 9 9 10 10 10 10 11 12 12 11 10 10 12 13 13 13 10 7 9 10 11 13 15 15 14 13 13 12 14 21 25 24 24 26 28 30 32 33 34
9 9 9 9 10 10 10 10 11 12 12 12 10 9 10 13 15 15 13 9 5 6 8 10 11 14 15 14 12 12 11 10 13 18 20 20 23 25 28 31 32 30
10 10 9 9 10 10 10 11 12 11 11 11 10 9 11 14 14 12 11 7 4 4 6 8 9 12 13 14 13 11 10 8 8 13 15 16 18 22 26 29 30 31
11 11 10 9 9 9 10 11 13 13 11 10 8 8 10 12 10 7 7 6 4 3 5 6 7 10 12 12 12 11 9 5 3 11 15 16 18 22 24 24 25 28
11 10 10 10 8 7 8 11 15 15 12 9 8 8 10 10 8 6 7 6 4 2 4 5 6 8 10 11 11 10 9 6 1 6 13 17 20 22 23 22 22 22
12 12 12 11 8 7 8 11 15 14 10 9 10 9 9 8 6 7 8 7 4 2 2 3 3 5 7 10 10 9 9 7 4 3 6 10 14 17 20 21 22 22
12 12 12 11 9 7 8 12 16 15 12 12 10 7 7 7 7 8 8 7 5 3 1 1 0 2 3 6 8 8 7 6 4 2 3 5 8 10 14 17 20 21
Wind_Direction
248 251 254 256 256 258 259 258 259 259 259 260 261 261 260 259 259 259 260 256 249 242 239 241 245 248 248 249 251 245 240 241 243 244 245 243 243 241 234 231 231 230
250 252 256 257 257 259 262 264 261 260 260 259 260 261 259 258 261 262 263 263 259 250 243 240 241 245 247 248 250 248 244 244 245 244 245 245 246 244 236 231 233 233
255 256 258 258 259 260 265 270 267 264 263 260 258 259 261 262 263 264 264 267 269 263 254 247 244 245 247 246 246 246 245 247 247 245 245 245 247 248 242 234 234 234
252 258 259 260 264 264 266 269 271 270 268 267 264 262 262 263 263 264 265 266 268 267 262 256 252 250 247 245 244 245 247 248 247 243 242 243 245 248 246 238 236 235
250 259 262 262 265 265 267 269 271 272 269 268 268 264 262 263 265 265 265 265 264 264 264 261 256 252 248 246 246 247 249 249 246 241 240 241 242 245 246 240 237 237
252 260 264 264 266 268 270 273 276 278 273 267 265 262 260 260 263 265 267 269 267 264 265 264 260 257 252 249 249 251 251 248 246 242 238 239 240 242 244 240 236 236
251 257 262 264 269 272 273 275 280 284 284 280 271 264 260 257 257 259 262 268 270 269 269 267 264 261 256 251 249 251 251 246 244 242 237 237 239 240 239 237 236 234
257 260 267 267 270 274 277 278 277 280 287 289 279 271 267 263 258 256 254 258 265 271 274 274 270 264 257 251 248 248 248 244 241 239 236 236 239 240 237 236 235 234
276 271 276 275 274 275 279 280 278 278 284 286 285 282 280 274 264 260 259 258 259 263 268 272 273 271 265 256 249 246 243 240 238 237 237 237 239 240 238 235 234 235
300 294 292 287 282 278 277 279 279 281 284 285 287 285 282 276 266 262 262 261 260 261 261 261 263 267 269 265 257 250 243 238 237 237 237 237 239 238 236 235 234 235
293 298 301 299 294 288 282 279 277 280 283 286 287 281 276 272 267 263 261 260 260 260 262 262 259 261 266 267 266 259 247 238 238 238 237 236 237 235 233 233 233 235
284 289 293 292 289 284 280 278 278 278 280 282 282 280 279 277 272 266 264 270 273 264 258 255 253 255 258 258 263 265 255 244 241 241 239 236 235 234 234 233 234 236
286 285 285 284 283 278 276 278 280 279 276 276 278 280 281 281 276 267 264 277 280 266 257 252 251 253 252 251 252 255 255 252 247 243 240 238 236 237 237 235 234 236
285 282 281 282 285 288 284 278 272 270 274 278 282 286 286 283 278 271 266 268 267 264 265 265 262 259 257 254 251 249 251 254 252 247 242 240 240 237 236 235 232 233
281 284 286 285 291 300 294 285 281 283 288 290 293 295 292 288 284 280 278 277 273 272 277 276 271 267 263 259 256 253 252 254 255 253 247 246 247 241 238 237 232 230
276 279 287 289 291 291 291 302 313 308 304 309 311 304 296 292 290 291 293 292 286 281 282 281 278 274 270 266 261 256 253 252 252 253 251 250 251 248 244 242 235 229
272 272 276 281 284 285 288 300 304 295 298 311 316 307 298 293 292 295 298 299 298 295 293 292 287 281 274 269 263 257 253 252 251 252 253 253 252 249 245 243 238 231
267 267 270 274 280 286 288 287 288 290 296 302 299 296 294 289 287 289 292 299 311 315 312 310 305 296 285 275 268 261 255 250 248 249 251 252 251 247 241 239 237 231
260 260 266 272 278 284 285 286 292 296 298 295 286 281 286 286 281 278 283 297 322 331 332 334 334 327 312 295 283 275 264 252 246 245 248 249 244 238 235 235 233 226
255 257 263 268 277 281 281 288 296 294 291 290 285 278 276 276 273 269 273 286 320 341 347 351 353 352 344 324 302 288 279 260 246 245 249 244 235 232 232 229 226 219
254 258 262 267 274 279 283 292 296 293 290 286 280 275 269 267 269 269 269 277 300 329 348 356 359 2 0 352 334 309 297 284 258 251 251 242 231 227 222 213 211 213
251 254 259 266 272 277 286 293 291 288 288 282 271 266 268 273 277 271 266 271 283 310 340 355 3 7 7 6 1 343 325 313 272 248 243 238 231 223 210 198 198 205
246 251 258 265 272 279 285 287 284 281 284 284 275 262 262 272 282 280 266 261 270 319 342 351 6 14 12 13 15 8 2 356 245 216 208 204 207 211 206 195 194 201
242 245 253 256 260 274 282 283 285 283 277 272 265 252 252 263 270 274 269 260 258 316 341 343 5 17 9 6 13 17 19 23 67 186 182 178 181 190 194 190 186 189
239 238 245 248 250 265 275 280 286 283 266 252 248 243 253 265 259 260 271 271 267 292 325 328 4 23 5 355 0 10 16 20 38 117 156 162 164 171 177 175 172 172
240 238 242 243 246 257 266 275 282 279 262 246 234 230 251 255 232 237 260 269 268 285 307 274 339 45 18 350 348 355 2 5 18 80 134 152 155 157 158 157 159 162